Theta_e
312 313 321 321 323 323 324 324 323 322 323 325 327 327 329 328 328 333 340 338 341 341 342 336 334 335 339 338 336 336 335 333 331 327 326 323 322 321 320 321 329 331 330 328 328 328 328 326 325
317 319 320 322 321 324 325 324 322 323 323 325 326 327 326 329 331 332 338 341 341 340 340 337 334 334 339 337 333 333 335 333 332 328 326 322 321 326 326 327 331 331 328 326 316 321 320 323 324
318 318 320 322 323 323 324 324 323 322 322 324 325 329 328 327 333 335 339 339 339 341 340 341 333 334 335 333 331 335 334 333 331 328 325 322 328 328 327 329 332 331 325 318 318 312 312 313 320
317 317 318 321 322 323 323 323 323 322 322 324 325 327 329 333 334 337 337 336 338 338 339 339 337 332 331 331 331 336 336 334 331 331 324 325 325 328 329 323 330 327 314 314 323 309 309 311 315
317 319 323 323 323 323 323 322 322 322 322 325 326 328 328 334 335 336 336 334 338 337 339 337 337 332 330 332 335 336 336 336 332 329 325 324 325 324 326 328 324 315 311 316 310 309 310 311 312
319 319 322 322 322 323 323 322 322 322 322 324 326 326 326 335 334 336 332 332 336 337 337 337 338 335 329 330 334 331 336 336 334 328 326 324 323 324 328 323 320 320 313 310 309 309 309 311 313
320 322 322 322 322 323 323 323 323 323 323 324 328 325 326 331 333 334 335 329 335 335 336 337 337 336 329 330 331 326 337 336 332 329 327 322 322 326 324 325 327 324 316 313 308 307 309 311 312
319 321 322 322 321 322 323 322 322 322 323 327 325 325 326 334 334 333 333 333 334 335 332 336 336 336 329 329 330 329 335 333 332 329 327 321 318 319 325 326 328 324 318 312 308 306 308 307 308
319 321 321 321 321 322 322 321 321 323 323 325 327 328 330 333 332 332 332 333 334 334 331 333 335 334 332 332 329 330 326 331 331 328 323 320 324 324 324 327 327 321 317 313 310 307 306 306 307
319 320 320 322 321 322 321 321 321 322 323 324 325 328 332 331 330 330 330 331 333 333 331 331 333 332 330 330 329 329 329 330 327 324 322 323 323 325 328 325 322 320 316 314 311 308 306 309 308
319 319 321 321 319 321 321 321 321 321 322 324 324 325 331 332 329 331 330 332 332 332 330 332 331 327 327 328 325 328 327 326 325 324 321 321 320 324 325 322 321 319 317 315 312 309 314 317 316
319 319 319 320 319 319 321 321 322 322 323 326 326 327 330 330 330 331 331 332 332 332 330 329 331 329 323 325 326 326 327 325 324 321 320 318 320 322 323 322 322 320 318 316 313 317 319 319 318
319 319 319 318 318 319 320 321 321 322 322 326 327 329 329 328 329 330 330 331 331 329 330 329 331 330 325 323 324 325 326 326 324 322 321 320 323 322 323 323 323 322 323 321 319 321 320 319 320
318 319 319 319 319 319 320 321 321 322 323 327 328 330 329 328 328 329 330 331 330 329 329 330 330 330 326 326 326 326 325 326 324 319 320 320 323 321 324 324 325 323 323 322 321 321 320 319 319
318 319 320 320 320 320 320 321 321 321 323 326 329 330 330 329 327 328 329 330 329 330 328 328 328 329 328 328 328 328 326 326 322 320 318 316 317 322 325 325 324 322 323 322 321 321 319 318 319
319 319 320 321 321 320 320 321 322 323 326 326 328 329 330 328 327 326 327 328 329 327 327 327 327 326 327 327 327 326 325 325 323 320 318 322 318 322 322 322 322 321 322 321 320 319 318 318 318
321 321 321 322 322 321 321 322 322 324 325 325 327 329 329 329 328 326 326 327 328 327 327 326 325 324 323 323 324 324 324 322 320 319 319 317 321 320 319 318 318 318 319 319 319 319 318 317 317
322 322 322 322 323 321 320 322 322 324 324 325 326 328 330 329 329 327 326 325 327 326 327 326 325 324 323 323 323 323 322 321 319 313 318 320 319 316 315 316 317 317 317 317 318 318 318 317 317
321 322 322 322 321 320 321 321 323 323 322 324 327 327 329 329 329 327 327 325 326 327 326 324 324 323 322 322 322 321 320 320 315 317 317 315 315 313 314 315 312 317 318 318 317 317 317 317 316
319 320 321 321 320 319 319 319 321 322 323 323 326 327 329 330 329 328 328 326 326 326 324 325 325 324 323 322 322 321 320 319 314 314 316 314 315 314 314 313 313 316 319 319 320 318 318 316 315
320 320 320 321 321 320 319 319 321 322 322 322 324 325 326 329 329 329 328 328 325 326 324 324 324 324 323 322 321 321 321 318 316 315 315 316 317 318 315 316 318 315 319 322 322 322 321 320 318
321 320 320 320 320 321 321 320 321 322 323 324 323 323 325 327 329 329 329 328 327 326 326 324 323 324 323 323 322 321 321 319 317 315 315 317 317 316 315 318 320 320 319 321 323 323 322 322 321
320 320 320 319 320 321 321 320 322 323 323 323 323 323 324 326 329 329 329 329 328 327 326 323 323 324 324 324 323 321 321 320 318 317 316 316 318 316 317 319 321 322 321 321 322 322 322 322 320
318 318 319 320 321 323 322 321 322 323 323 323 323 322 323 326 328 329 329 329 329 327 327 324 322 323 324 323 322 322 321 321 319 316 317 318 319 319 319 321 321 320 321 321 321 321 321 321 321
318 319 322 322 324 323 322 322 321 323 323 323 322 322 323 324 326 329 329 329 329 328 327 325 324 322 323 323 323 322 322 322 321 320 319 317 319 320 320 320 321 320 318 317 319 320 320 321 319
318 319 321 323 326 324 322 323 322 323 323 322 322 322 322 324 326 328 330 330 329 329 327 326 324 323 322 322 323 323 322 322 321 320 319 318 317 317 318 320 321 319 318 318 318 318 321 318 318
319 320 318 321 322 326 324 323 324 323 322 322 322 321 322 323 326 327 328 330 330 329 328 327 325 324 323 323 322 323 323 322 321 320 319 319 318 317 317 318 319 319 317 317 318 319 320 320 319
318 319 320 321 323 324 324 325 325 322 322 323 323 323 322 322 324 325 327 328 330 330 329 328 326 324 324 324 324 323 323 323 321 320 321 320 319 317 318 316 318 318 317 318 318 318 318 318 319
317 319 321 321 322 324 325 324 323 324 323 323 324 323 323 323 323 324 325 327 329 330 330 329 327 325 324 325 324 322 323 323 323 323 321 322 322 320 320 319 318 318 318 319 319 318 318 319 318
319 319 321 323 325 323 326 324 323 322 321 321 321 322 322 322 322 323 325 327 328 330 330 329 328 326 325 324 325 324 324 324 324 323 324 323 323 322 321 320 320 319 319 319 320 320 320 320 320
Wind_Speed
8 6 4 9 7 8 16 1 6 6 7 3 4 6 15 14 12 6 2 4 3 8 12 25 25 26 28 27 26 27 25 24 26 25 25 23 22 22 23 21 22 20 18 19 21 21 19 20 22
6 7 9 13 8 13 6 6 8 0 5 3 4 7 10 10 5 6 4 2 5 9 16 21 28 29 27 31 26 27 28 29 30 27 27 25 24 24 23 23 22 19 18 18 19 22 22 23 23
11 10 15 8 14 14 8 8 1 3 2 4 4 3 6 7 5 3 3 3 5 10 18 21 30 29 30 29 24 25 30 30 31 30 28 27 26 25 23 25 21 16 16 16 19 21 23 22 22
9 9 15 11 17 11 7 1 2 5 7 3 4 6 3 4 2 4 4 4 7 12 18 22 29 30 29 27 29 32 32 33 32 30 29 28 25 25 24 20 20 19 17 19 20 21 21 21 21
12 13 13 17 17 11 3 10 1 6 3 5 4 7 7 4 2 3 5 6 7 13 18 25 27 29 26 26 29 33 34 33 33 33 28 26 25 23 22 21 20 19 19 22 20 21 20 21 22
15 17 14 15 15 8 5 6 7 5 8 8 7 8 11 3 2 6 10 7 8 12 19 23 27 30 26 27 26 25 34 34 34 33 29 24 23 22 23 21 22 22 22 20 20 21 20 21 22
17 13 16 19 14 4 7 3 9 10 7 9 6 10 12 4 5 5 7 8 8 11 18 21 23 25 27 27 26 28 36 36 34 31 30 23 22 23 23 24 25 22 21 20 20 20 21 22 22
21 14 21 19 12 12 9 8 11 9 11 3 5 7 11 4 3 5 5 7 8 12 15 24 20 19 26 24 21 24 31 32 33 32 29 28 29 26 27 27 24 22 22 21 21 21 21 21 20
14 14 16 19 13 11 11 8 15 5 12 8 7 9 8 5 5 6 7 8 9 12 17 21 22 21 21 20 24 21 22 26 28 29 27 27 30 30 27 25 23 23 22 23 22 21 21 21 21
17 13 22 12 9 8 4 12 13 9 13 12 11 10 9 6 6 8 9 9 8 9 13 17 23 22 21 18 20 20 20 17 26 25 26 30 28 26 22 24 24 26 24 23 22 20 20 21 23
23 20 20 8 11 8 9 10 13 12 12 8 10 9 5 8 7 7 7 7 4 4 8 15 20 20 25 22 16 19 26 32 26 28 34 36 31 25 25 27 27 28 25 23 22 21 18 16 17
21 24 22 18 11 13 14 14 13 13 13 5 7 5 6 7 7 6 3 4 4 3 5 12 17 25 22 25 19 19 26 33 34 32 32 29 29 30 27 29 31 30 26 24 22 18 14 14 14
21 21 22 19 16 13 15 16 16 18 17 5 7 6 7 6 6 4 5 4 5 4 6 7 19 21 23 20 21 28 33 25 29 33 35 36 31 31 28 28 27 25 20 20 19 14 15 15 14
23 20 25 17 18 19 17 17 21 16 9 7 9 8 8 8 7 6 6 7 4 4 8 9 16 26 30 23 22 24 35 38 34 40 39 38 31 28 26 27 25 23 21 19 17 15 15 15 14
20 21 17 20 21 16 18 20 19 24 14 10 12 11 10 9 8 8 8 8 11 7 7 9 11 19 19 19 21 28 43 45 43 47 36 32 34 30 26 27 26 23 21 19 17 16 15 15 15
15 20 18 19 19 20 16 17 15 6 9 11 13 13 12 12 11 8 8 9 11 15 9 8 12 15 15 17 21 28 41 47 44 44 35 34 35 31 28 24 24 22 20 20 18 17 16 16 16
17 15 21 18 15 10 12 15 15 8 9 11 14 14 14 13 13 11 9 9 11 16 14 10 13 13 14 13 19 31 44 43 42 36 36 34 31 33 28 26 22 23 21 20 18 17 17 17 16
17 18 18 17 13 12 16 17 16 13 12 13 16 15 15 15 15 14 12 11 12 13 16 15 13 13 12 14 29 37 44 46 41 42 40 40 31 33 28 24 21 22 19 18 17 17 17 16 16
20 18 15 13 5 8 14 16 14 17 15 14 15 16 16 16 13 14 14 13 13 14 17 18 17 16 15 21 32 32 33 35 42 38 33 34 29 30 25 24 22 21 20 18 19 18 17 16 16
24 24 15 14 2 7 14 16 18 14 14 15 15 18 16 15 16 17 16 16 16 17 18 19 21 21 19 22 34 33 37 42 46 45 34 38 35 34 33 27 23 25 19 19 20 19 17 16 17
21 22 18 17 7 9 15 18 19 14 18 13 14 15 14 16 19 19 19 18 17 18 19 23 22 24 24 24 32 30 38 38 44 43 39 43 37 28 33 26 27 29 23 23 24 21 19 17 17
21 18 19 16 15 13 12 15 17 19 19 15 18 18 16 16 18 21 22 21 19 19 19 22 24 25 27 27 33 35 39 44 49 49 47 44 38 33 37 31 26 24 28 24 24 22 21 18 18
21 15 15 16 17 15 17 9 12 13 13 15 15 20 19 17 19 22 24 23 21 20 21 21 25 27 30 31 32 34 37 39 51 49 47 43 39 39 34 31 29 27 27 27 25 25 25 24 22
16 11 11 13 14 15 18 15 11 12 14 10 11 13 16 16 17 20 23 23 22 21 21 22 24 29 29 32 33 36 37 40 47 54 53 47 40 40 40 34 33 34 33 30 31 29 28 27 24
18 14 9 11 12 14 14 13 14 4 4 6 5 8 14 12 15 19 24 26 25 25 25 24 26 27 33 35 35 37 41 44 42 49 48 58 45 41 39 38 35 36 37 37 32 30 32 29 27
20 18 9 14 11 14 19 8 11 7 2 4 10 12 2 8 12 16 23 27 27 28 28 27 26 27 31 38 37 36 35 41 39 46 50 55 59 54 45 40 41 43 41 40 37 36 33 35 31
17 21 21 18 10 7 7 10 12 3 7 6 6 7 9 10 12 14 18 26 28 29 30 29 27 27 28 32 40 40 40 37 39 40 43 49 55 59 54 49 46 45 46 45 42 40 38 33 32
22 12 18 11 12 12 10 11 8 9 10 5 3 8 5 3 10 14 16 22 28 29 29 29 29 29 28 29 35 40 42 42 42 43 42 46 50 53 48 54 51 49 48 48 45 45 44 41 39
15 18 13 15 14 9 12 9 5 10 11 6 6 7 11 9 7 8 11 16 24 28 30 30 30 30 30 30 31 32 41 41 41 42 48 44 42 47 47 45 48 49 49 47 43 46 47 44 44
18 21 20 10 9 12 8 2 8 8 7 6 6 2 5 6 6 6 5 10 18 25 29 31 30 32 32 33 33 34 33 37 43 46 47 48 44 44 43 47 44 45 47 46 46 45 45 45 45
Wind_Direction
213 213 251 249 245 230 268 209 322 233 217 115 332 319 334 334 315 341 352 311 171 185 203 192 190 187 193 193 194 196 191 191 185 181 175 168 164 158 151 145 147 149 151 146 150 149 144 144 136
194 221 240 269 252 254 251 93 218 335 38 10 286 281 275 296 335 307 314 291 185 190 209 195 191 189 186 194 202 202 195 188 184 182 176 172 166 159 154 150 155 156 148 152 150 144 144 145 142
175 216 261 232 234 265 330 113 210 136 211 263 278 197 311 316 338 298 279 293 205 187 220 199 196 190 188 201 205 203 200 194 183 181 179 167 167 165 162 157 160 158 159 149 139 143 145 146 146
184 217 247 255 262 244 285 358 173 231 189 249 312 285 188 257 242 241 287 285 247 209 213 210 212 202 205 212 213 203 200 194 184 175 175 168 169 167 168 166 166 163 157 146 147 142 143 147 149
214 253 251 245 259 264 250 287 301 283 287 319 268 299 282 160 219 253 266 258 255 224 204 228 225 212 207 212 208 201 199 187 181 178 174 173 172 174 176 169 163 157 155 149 145 144 143 146 146
221 237 254 258 250 216 225 242 235 231 255 253 245 288 301 156 236 260 279 245 246 249 216 223 231 221 215 225 222 222 189 182 179 177 174 167 175 175 172 164 157 154 147 142 145 143 143 144 140
238 240 253 277 282 241 207 130 247 252 272 256 65 295 300 237 224 227 260 278 248 243 227 223 230 228 215 225 218 227 184 183 181 180 173 180 174 171 166 159 154 149 146 144 144 142 146 146 144
236 254 269 266 269 255 179 206 256 261 281 343 300 268 323 27 248 273 257 253 245 259 244 227 231 226 209 217 224 232 175 181 181 178 176 172 173 175 171 165 157 150 149 142 142 147 152 145 146
236 258 253 256 243 253 143 244 263 269 275 228 240 272 303 285 277 298 260 258 239 234 248 227 226 218 207 210 210 205 210 178 174 178 171 169 169 167 171 166 161 155 148 146 145 149 149 143 142
230 233 250 278 282 237 228 220 252 252 245 241 244 258 259 276 283 281 274 257 239 231 230 232 228 223 214 216 207 197 173 173 175 172 168 169 165 167 164 172 163 158 151 149 148 148 142 140 139
223 244 269 263 268 244 275 277 267 265 268 298 331 302 242 259 278 290 280 247 230 224 225 234 228 208 223 208 187 179 180 189 182 175 174 174 162 163 179 167 163 159 157 153 152 147 134 148 148
232 248 255 274 231 238 252 261 282 272 271 322 294 275 226 240 265 279 245 230 213 202 215 226 222 220 216 216 213 195 190 193 194 175 181 157 167 170 178 169 167 165 158 159 157 137 156 152 162
233 243 262 253 243 236 258 267 269 277 287 228 257 233 221 233 244 246 215 207 229 191 212 202 205 209 204 208 214 217 211 201 178 190 186 161 169 174 170 172 167 163 159 161 159 161 165 160 164
242 242 259 246 240 234 243 262 269 265 271 249 231 225 218 222 228 227 212 207 206 229 183 199 200 206 207 212 220 224 225 222 202 189 176 161 171 174 172 167 169 166 171 170 166 176 168 164 167
261 262 257 249 241 239 246 257 252 258 233 235 228 222 217 216 218 225 226 214 188 177 200 201 190 200 207 227 237 231 207 199 189 182 174 170 187 170 175 172 173 170 176 175 174 176 171 167 171
255 243 254 249 224 233 230 259 272 179 196 234 227 217 216 216 213 218 222 207 198 208 200 217 207 201 212 225 232 224 189 185 175 168 164 183 182 173 172 174 173 173 175 178 180 175 176 178 178
237 246 232 249 222 235 210 256 251 159 211 258 232 226 220 217 209 207 208 209 211 212 209 209 203 207 206 216 214 191 178 173 165 162 175 179 187 183 169 170 173 169 175 176 180 179 183 186 183
239 220 243 259 203 206 241 239 258 208 220 237 254 219 217 217 209 206 200 202 200 203 208 201 214 202 197 189 175 168 167 163 163 163 185 182 182 176 173 167 174 170 174 179 184 185 188 191 187
256 263 276 245 223 210 247 254 242 230 231 227 227 235 221 218 210 200 198 196 195 192 203 209 206 200 183 185 184 172 175 177 167 174 193 184 179 183 186 187 195 178 187 185 191 189 188 192 192
242 253 255 266 132 237 264 258 246 238 228 248 226 224 229 214 205 199 196 194 196 191 198 199 206 203 190 189 185 187 183 176 172 180 186 185 184 184 188 187 202 192 188 195 200 191 192 192 196
229 241 247 260 224 229 263 265 256 241 251 234 238 240 227 218 209 203 199 199 196 195 199 205 203 205 196 187 188 187 187 182 183 185 189 182 191 197 191 185 216 206 193 206 210 199 195 195 204
242 232 245 256 258 256 257 256 244 229 232 212 232 233 230 217 211 206 202 199 201 196 194 202 206 200 200 197 195 194 194 194 189 191 193 190 205 200 202 205 205 207 202 210 215 210 204 199 212
244 258 246 234 252 259 258 255 269 270 238 226 235 212 214 222 208 205 203 201 199 194 196 193 206 204 207 207 203 203 199 199 196 193 193 199 211 213 209 208 215 210 212 211 215 215 215 215 211
252 216 246 236 244 241 244 256 268 250 231 209 242 225 202 203 210 207 202 199 198 193 194 192 202 206 205 205 206 206 208 204 200 202 204 200 213 214 209 209 217 218 220 218 221 221 225 220 228
227 200 210 219 223 234 229 231 236 260 355 305 276 239 199 195 210 205 198 197 196 196 191 192 193 202 211 210 212 213 212 214 215 208 207 205 209 213 214 211 216 225 228 231 227 233 232 232 236
209 206 214 215 231 223 216 236 239 224 327 297 265 237 190 199 201 206 204 202 200 199 195 193 195 197 209 212 214 214 212 214 214 217 214 209 216 219 218 220 222 229 231 232 230 235 237 239 240
218 224 233 265 250 277 167 215 254 199 229 224 198 202 201 202 201 211 208 208 206 204 201 197 195 197 203 211 214 215 215 219 214 213 216 221 222 219 221 226 230 234 236 239 232 233 234 237 241
251 227 221 230 245 238 247 192 251 167 196 12 316 184 218 205 213 211 222 217 211 209 207 202 200 200 201 204 211 216 220 221 220 219 216 221 220 221 226 231 232 234 237 237 239 241 245 245 246
213 241 249 230 222 236 236 252 185 94 70 47 329 41 39 24 337 301 240 232 217 212 209 208 204 203 203 205 207 211 215 218 222 226 221 222 224 225 226 228 233 233 233 237 237 242 246 246 249
219 216 230 233 212 235 234 336 130 111 79 39 336 297 7 338 344 353 296 233 218 216 215 215 209 206 208 207 208 212 213 215 219 220 223 225 225 223 227 226 229 232 234 236 237 239 241 245 246